INMARSAT 4-F1

Last updated on Mon Nov 03 2025 00:02:55 GMT+0000 (Coordinated Universal Time)

1 28628U 05009A 25306.40808823 .00000047 00000+0 00000+0 0 9998 2 28628 4.8658 42.4766 0004004 190.1089 134.3811 1.00271623 75391
UTC large
Height (km)
Speed (km/s)
/
Latitude / Longitude
Inclination (degrees)
Orbital Period (minutes)
Azimuth
Elevation
Range (km)
Doppler Factor

Next 0 passes for location: London (51.5072 / 0.1276)

Sorry there are no passes over London.